KD0MAC Weather Reports


time (UTC)temp
C
wind
direction
speed
KPH
gust
KPH
rain 1hr
cm
rain 24hr
cm
rain mn
cm
humidity
%
barometer
mb
20260505011633 20 113 8.0 17.7 0.00 0.00 0.00 44 1003.0
20260505011133 20 347 6.4 14.5 0.00 0.00 0.00 43 1003.0
20260505010633 21 118 8.0 12.9 0.00 0.00 0.00 42 1003.4
20260505010134 21 55 6.4 17.7 0.00 0.00 0.00 40 1003.0
20260505005634 21 15 8.0 17.7 0.00 0.00 0.00 38 1002.7
20260505005133 22 323 4.8 11.3 0.00 0.00 0.00 37 1002.7
20260505004633 22 74 3.2 11.3 0.00 0.00 0.00 36 1002.7
20260505004134 22 67 6.4 11.3 0.00 0.00 0.00 36 1002.7
20260505003633 22 113 3.2 6.4 0.00 0.00 0.00 36 1002.7
20260505003133 22 84 1.6 9.7 0.00 0.00 0.00 36 1002.4
20260505002633 22 67 1.6 9.7 0.00 0.00 0.00 36 1002.4
20260505002133 22 56 3.2 14.5 0.00 0.00 0.00 36 1002.7
20260505001633 23 58 4.8 14.5 0.00 0.00 0.00 35 1002.7
20260505001133 24 316 4.8 12.9 0.00 0.00 0.00 33 1003.0
20260505000634 25 6 6.4 12.9 0.00 0.00 0.00 31 1002.7
20260505000134 26 63 4.8 12.9 0.00 0.00 0.00 29 1002.7
20260504235633 25 63 4.8 12.9 0.00 0.00 0.00 29 1002.7
20260504235134 25 119 6.4 12.9 0.00 0.00 0.00 29 1002.7
20260504234642 25 324 6.4 9.7 0.00 0.00 0.00 31 1003.0
20260504234133 25 15 4.8 11.3 0.00 0.00 0.00 31 1003.0
20260504233634 25 274 6.4 11.3 0.00 0.00 0.00 29 1003.0
20260504233133 25 246 4.8 9.7 0.00 0.00 0.00 28 1003.0
20260504232633 25 49 1.6 8.0 0.00 0.00 0.00 27 1002.7
20260504232133 25 95 3.2 12.9 0.00 0.00 0.00 26 1002.7
20260504231633 25 217 4.8 14.5 0.00 0.00 0.00 25 1002.7
20260504231134 25 60 9.7 14.5 0.00 0.00 0.00 25 1002.7
20260504230633 25 306 11.3 17.7 0.00 0.00 0.00 25 1002.4
20260504230134 25 326 6.4 12.9 0.00 0.00 0.00 24 1002.4
20260504225636 26 115 1.6 3.2 0.00 0.00 0.00 25 1002.7
20260504225133 26 87 0.0 1.6 0.00 0.00 0.00 26 1002.4
20260504224634 26 70 0.0 11.3 0.00 0.00 0.00 26 1002.4
20260504224133 26 94 1.6 11.3 0.00 0.00 0.00 25 1002.4
20260504223633 26 119 6.4 12.9 0.00 0.00 0.00 25 1002.4
20260504223134 26 136 4.8 12.9 0.00 0.00 0.00 24 1002.4
20260504222635 26 97 8.0 14.5 0.00 0.00 0.00 24 1002.4
20260504222134 27 165 6.4 14.5 0.00 0.00 0.00 24 1002.4
20260504221634 27 146 6.4 12.9 0.00 0.00 0.00 23 1002.4
20260504221139 27 83 4.8 12.9 0.00 0.00 0.00 23 1002.4
20260504220633 27 84 3.2 12.9 0.00 0.00 0.00 23 1002.4
20260504220133 27 107 3.2 11.3 0.00 0.00 0.00 23 1002.4
20260504215633 27 123 4.8 12.9 0.00 0.00 0.00 22 1002.4
20260504215133 28 114 1.6 11.3 0.00 0.00 0.00 22 1002.4
20260504214633 28 183 6.4 11.3 0.00 0.00 0.00 22 1002.7
20260504214135 28 79 4.8 11.3 0.00 0.00 0.00 21 1002.7
20260504213633 29 103 4.8 11.3 0.00 0.00 0.00 20 1002.7
20260504213134 30 122 4.8 11.3 0.00 0.00 0.00 20 1002.7
20260504212633 30 96 3.2 14.5 0.00 0.00 0.00 19 1002.7
20260504212137 31 86 3.2 14.5 0.00 0.00 0.00 19 1002.7
20260504211633 31 121 8.0 14.5 0.00 0.00 0.00 19 1002.7
20260504211135 31 132 6.4 11.3 0.00 0.00 0.00 17 1002.7
20260504210633 32 66 4.8 12.9 0.00 0.00 0.00 18 1002.7
20260504210133 31 82 8.0 12.9 0.00 0.00 0.00 18 1002.7
20260504205633 31 35 6.4 12.9 0.00 0.00 0.00 20 1003.0
20260504205134 31 111 4.8 12.9 0.00 0.00 0.00 18 1003.0
20260504204634 31 114 3.2 11.3 0.00 0.00 0.00 18 1002.7
20260504204134 31 172 3.2 12.9 0.00 0.00 0.00 19 1003.0
20260504203634 31 128 6.4 12.9 0.00 0.00 0.00 18 1003.0
20260504203133 31 135 8.0 12.9 0.00 0.00 0.00 17 1003.0
20260504202634 32 128 1.6 6.4 0.00 0.00 0.00 17 1003.0
20260504202134 32 100 3.2 8.0 0.00 0.00 0.00 17 1003.4
20260504201633 31 131 4.8 6.4 0.00 0.00 0.00 18 1003.4
20260504201133 31 75 3.2 11.3 0.00 0.00 0.00 18 1003.4
20260504200634 31 119 3.2 11.3 0.00 0.00 0.00 18 1003.4
20260504200133 32 85 4.8 11.3 0.00 0.00 0.00 18 1003.4
20260504195633 32 105 3.2 11.3 0.00 0.00 0.00 17 1003.4
20260504195134 31 120 4.8 14.5 0.00 0.00 0.00 18 1003.4
20260504194633 31 87 1.6 6.4 0.00 0.00 0.00 19 1003.4
20260504194134 31 136 3.2 8.0 0.00 0.00 0.00 18 1003.7
20260504193633 31 64 3.2 8.0 0.00 0.00 0.00 18 1003.4
20260504193133 31 151 4.8 8.0 0.00 0.00 0.00 19 1003.7
20260504192633 32 86 4.8 6.4 0.00 0.00 0.00 17 1003.7
20260504192135 32 101 1.6 4.8 0.00 0.00 0.00 17 1003.7
20260504191634 32 105 3.2 4.8 0.00 0.00 0.00 16 1003.7
20260504191133 32 77 3.2 9.7 0.00 0.00 0.00 17 1004.1
20260504190633 32 32 3.2 9.7 0.00 0.00 0.00 18 1004.1
20260504190135 32 105 4.8 9.7 0.00 0.00 0.00 18 1004.1
20260504185635 31 31 3.2 6.4 0.00 0.00 0.00 18 1004.1
20260504185133 30 82 1.6 6.4 0.00 0.00 0.00 20 1004.1
20260504184634 30 55 3.2 6.4 0.00 0.00 0.00 19 1004.4
20260504184133 29 8 3.2 6.4 0.00 0.00 0.00 21 1004.4
20260504183635 29 76 0.0 6.4 0.00 0.00 0.00 22 1004.4
20260504183134 29 233 1.6 8.0 0.00 0.00 0.00 21 1004.4
20260504182636 29 83 0.0 8.0 0.00 0.00 0.00 22 1004.4
20260504182133 29 93 0.0 3.2 0.00 0.00 0.00 22 1004.4
20260504181636 30 67 0.0 4.8 0.00 0.00 0.00 22 1004.4
20260504181136 30 161 1.6 4.8 0.00 0.00 0.00 22 1004.4
20260504180634 30 86 3.2 6.4 0.00 0.00 0.00 21 1004.7
20260504180134 30 84 3.2 6.4 0.00 0.00 0.00 20 1004.7
20260504175635 30 63 3.2 8.0 0.00 0.00 0.00 20 1004.7
20260504175134 30 278 3.2 6.4 0.00 0.00 0.00 20 1004.7
20260504174635 31 295 3.2 8.0 0.00 0.00 0.00 19 1004.7
20260504174136 31 267 1.6 8.0 0.00 0.00 0.00 20 1004.7
20260504173634 31 21 1.6 6.4 0.00 0.00 0.00 21 1004.7
20260504173135 30 151 1.6 6.4 0.00 0.00 0.00 20 1004.7
20260504172635 29 0 4.8 6.4 0.00 0.00 0.00 22 1004.7
20260504172133 28 67 0.0 6.4 0.00 0.00 0.00 23 1005.1
20260504171635 28 70 3.2 8.0 0.00 0.00 0.00 21 1005.1
20260504171134 29 291 3.2 8.0 0.00 0.00 0.00 21 1005.1
20260504170634 30 89 3.2 9.7 0.00 0.00 0.00 21 1005.1
20260504170133 30 126 4.8 9.7 0.00 0.00 0.00 22 1005.1
20260504160134 26 324 6.4 11.3 0.00 0.00 0.00 27 1005.1
20260504151133 22 320 6.4 11.3 0.00 0.00 0.00 36 1005.1
20260504150634 22 89 4.8 11.3 0.00 0.00 0.00 36 1005.1
20260504150134 21 330 6.4 14.5 0.00 0.00 0.00 38 1005.4
20260504141134 16 44 11.3 19.3 0.00 0.00 0.00 50 1005.4
20260504140637 15 294 9.7 14.5 0.00 0.00 0.00 51 1005.4
20260504140138 15 12 8.0 12.9 0.00 0.00 0.00 53 1005.4
20260504130636 12 279 4.8 9.7 0.00 0.00 0.00 62 1004.4
20260504130135 12 11 1.6 4.8 0.00 0.00 0.00 63 1004.4
20260504120133 9 42 1.6 8.0 0.00 0.00 0.00 67 1004.1
20260504110634 8 75 0.0 0.0 0.00 0.00 0.00 71 1004.1
20260504110134 8 86 0.0 1.6 0.00 0.00 0.00 70 1004.1
20260504100135 10 83 0.0 3.2 0.00 0.00 0.00 66 1004.7
20260504090133 11 309 1.6 3.2 0.00 0.00 0.00 63 1005.1
20260504081633 11 78 0.0 3.2 0.00 0.00 0.00 61 1005.1
20260504081133 11 34 1.6 4.8 0.00 0.00 0.00 62 1005.4
20260504080634 11 90 0.0 1.6 0.00 0.00 0.00 61 1005.4
20260504080134 11 10 0.0 1.6 0.00 0.00 0.00 60 1005.4
20260504070134 13 90 0.0 0.0 0.00 0.00 0.00 52 1005.4
20260504060133 14 72 0.0 1.6 0.00 0.00 0.00 48 1006.1
20260504050637 16 84 1.6 4.8 0.00 0.00 0.00 42 1006.4
20260504050134 16 80 0.0 3.2 0.00 0.00 0.00 42 1006.4
20260504045634 16 80 1.6 3.2 0.00 0.00 0.00 42 1006.4
20260504045134 16 95 0.0 0.0 0.00 0.00 0.00 42 1006.4
20260504044633 16 98 0.0 3.2 0.00 0.00 0.00 42 1006.8
20260504044136 16 132 0.0 3.2 0.00 0.00 0.00 42 1006.8
20260504043635 16 100 0.0 1.6 0.00 0.00 0.00 41 1006.8
20260504043133 16 68 0.0 3.2 0.00 0.00 0.00 41 1006.8
20260504042634 16 111 1.6 3.2 0.00 0.00 0.00 41 1006.8
20260504042134 17 110 0.0 1.6 0.00 0.00 0.00 40 1007.1
20260504041633 17 67 0.0 3.2 0.00 0.00 0.00 40 1007.1
20260504041134 17 112 1.6 3.2 0.00 0.00 0.00 39 1007.1
20260504040633 17 112 1.6 3.2 0.00 0.00 0.00 38 1007.1
20260504040136 17 87 1.6 3.2 0.00 0.00 0.00 38 1007.1
20260504035633 17 14 1.6 4.8 0.00 0.00 0.00 38 1007.1
20260504035133 18 131 1.6 6.4 0.00 0.00 0.00 37 1007.1
20260504034633 18 57 1.6 4.8 0.00 0.00 0.00 37 1007.1
20260504034134 18 101 1.6 4.8 0.00 0.00 0.00 37 1007.5
20260504033633 18 62 1.6 4.8 0.00 0.00 0.00 37 1007.1
20260504033134 18 78 3.2 6.4 0.00 0.00 0.00 37 1007.1
20260504032633 18 83 3.2 4.8 0.00 0.00 0.00 37 1007.1
20260504032134 18 78 1.6 4.8 0.00 0.00 0.00 36 1007.5
20260504031633 18 61 1.6 4.8 0.00 0.00 0.00 36 1007.5
20260504031134 18 83 1.6 4.8 0.00 0.00 0.00 36 1007.5
20260504030633 18 79 3.2 6.4 0.00 0.00 0.00 36 1007.5
20260504030133 18 95 3.2 4.8 0.00 0.00 0.00 36 1007.5
20260504025633 18 79 3.2 4.8 0.00 0.00 0.00 36 1007.5
20260504025133 18 83 1.6 4.8 0.00 0.00 0.00 36 1007.5
20260504024633 18 45 3.2 6.4 0.00 0.00 0.00 36 1007.5
20260504024134 18 60 3.2 9.7 0.00 0.00 0.00 36 1007.5
20260504023634 18 100 4.8 9.7 0.00 0.00 0.00 36 1007.5
20260504023134 18 86 1.6 4.8 0.00 0.00 0.00 36 1007.5
20260504022634 19 95 1.6 6.4 0.00 0.00 0.00 35 1007.5
20260504022133 19 83 1.6 4.8 0.00 0.00 0.00 35 1007.5
20260504021634 19 113 3.2 4.8 0.00 0.00 0.00 35 1007.5
20260504021133 19 48 1.6 4.8 0.00 0.00 0.00 34 1007.5
20260504020633 20 88 1.6 4.8 0.00 0.00 0.00 34 1007.5
20260504020133 20 51 1.6 6.4 0.00 0.00 0.00 33 1007.5
20260504015634 20 81 3.2 6.4 0.00 0.00 0.00 33 1007.5
20260504015133 20 88 3.2 6.4 0.00 0.00 0.00 32 1007.5
20260504014633 21 75 3.2 6.4 0.00 0.00 0.00 31 1007.5
20260504014133 21 84 4.8 8.0 0.00 0.00 0.00 31 1007.1
20260504013641 21 67 3.2 6.4 0.00 0.00 0.00 30 1007.1
20260504013134 21 72 3.2 6.4 0.00 0.00 0.00 30 1007.1
20260504012633 22 57 3.2 6.4 0.00 0.00 0.00 29 1007.1
20260504012134 22 59 1.6 8.0 0.00 0.00 0.00 28 1007.1